| time (UTC) | temp F | wind direction | speed knots | gust knots | rain 1hr in | rain 24hr in | rain mn in | humidity % | barometer mb |
| 20260510210853 | 84 | 189 | 2.6 | 6.1 | 0.00 | 0.00 | 0.00 | 32 | 1012.1 |
| 20260510200859 | 85 | 180 | 8.7 | 8.7 | 0.00 | 0.00 | 0.00 | 32 | 1012.2 |
| 20260510190857 | 85 | 190 | 4.3 | 4.3 | 0.00 | 0.00 | 0.00 | 34 | 1012.9 |
| 20260510180849 | 83 | 183 | 0.9 | 1.7 | 0.00 | 0.00 | 0.00 | 36 | 1013.0 |
| 20260510170842 | 84 | 213 | 1.7 | 1.7 | 0.00 | 0.00 | 0.00 | 37 | 1013.5 |
| 20260510160914 | 82 | 98 | 0.9 | 2.6 | 0.00 | 0.00 | 0.00 | 40 | 1013.9 |
| 20260510150853 | 80 | 203 | 0.9 | 3.5 | 0.00 | 0.00 | 0.00 | 45 | 1014.3 |
| 20260510140842 | 77 | 342 | 0.0 | 1.7 | 0.00 | 0.00 | 0.00 | 50 | 1014.0 |
| 20260510130850 | 73 | 244 | 0.9 | 0.9 | 0.00 | 0.00 | 0.00 | 63 | 1014.1 |
| 20260510120856 | 60 | 225 | 0.9 | 0.9 | 0.00 | 0.00 | 0.00 | 92 | 1013.1 |
| 20260510110842 | 54 | 223 | 0.0 | 0.0 | 0.00 | 0.00 | 0.00 | 95 | 1012.5 |
| 20260510100904 | 54 | 238 | 0.0 | 0.0 | 0.00 | 0.00 | 0.00 | 94 | 1011.9 |
| 20260510090856 | 55 | 193 | 0.0 | 0.0 | 0.00 | 0.00 | 0.00 | 93 | 1011.4 |
| 20260510080848 | 56 | 193 | 0.0 | 0.0 | 0.00 | 0.00 | 0.00 | 92 | 1011.0 |
| 20260510070856 | 59 | 194 | 0.0 | 0.0 | 0.00 | 0.00 | 0.00 | 90 | 1010.9 |
| 20260510060841 | 62 | 189 | 1.7 | 3.5 | 0.00 | 0.00 | 0.00 | 85 | 1010.9 |
| 20260510050852 | 64 | 196 | 0.9 | 1.7 | 0.00 | 0.00 | 0.00 | 81 | 1010.9 |
| 20260510040904 | 64 | 194 | 1.7 | 5.2 | 0.00 | 0.00 | 0.00 | 78 | 1010.8 |
| 20260510030844 | 65 | 214 | 0.9 | 2.6 | 0.00 | 0.00 | 0.00 | 75 | 1010.5 |
| 20260510020901 | 64 | 211 | 1.7 | 1.7 | 0.00 | 0.00 | 0.00 | 74 | 1010.1 |
| 20260510010913 | 66 | 227 | 0.9 | 0.9 | 0.00 | 0.00 | 0.00 | 68 | 1009.3 |
| 20260510000859 | 68 | 175 | 0.9 | 0.9 | 0.00 | 0.00 | 0.00 | 63 | 1008.8 |
| 20260509230902 | 73 | 187 | 3.5 | 3.5 | 0.00 | 0.00 | 0.00 | 54 | 1008.6 |
| 20260509220853 | 75 | 198 | 1.7 | 3.5 | 0.00 | 0.00 | 0.00 | 54 | 1008.4 |